Location: Rounton
(54.4000°N, 1.3500°W)
Time: 03:06:50
(UTC+00:00)

DELTA 1 DEB - Visible Passes

Search period start: 01 December 2023 00:00
Search period end: 11 December 2023 00:00
Orbit: 819 x 869 km, 99.0° (Epoch: 30 November)

Date Brightness Start Highest point End Pass type
(mag) Time Alt. Az. Time Alt. Az. Time Alt. Az.
01 Dec ? 05:31:40 10° NNE 05:37:04 53° E 05:42:21 10° S visible
01 Dec ? 07:12:30 10° N 07:17:26 35° WNW 07:22:18 10° WSW visible
01 Dec ? 17:04:13 10° S 17:09:38 49° W 17:15:04 10° NNW visible
02 Dec ? 05:17:55 10° NNE 05:23:09 42° E 05:28:16 10° S visible
02 Dec ? 06:58:34 10° N 07:03:43 42° WNW 07:08:47 10° SW visible
02 Dec ? 16:50:11 10° S 16:55:44 62° WSW 17:01:17 10° NNW visible
02 Dec ? 18:35:09 10° WSW 18:37:25 12° W 18:39:41 10° WNW visible
03 Dec ? 05:04:13 10° NNE 05:09:12 34° E 05:14:04 10° SSE visible
03 Dec ? 06:44:38 10° N 06:49:58 51° WNW 06:55:11 10° SW visible
03 Dec ? 16:36:16 10° SSE 16:41:52 76° WSW 16:47:28 10° NNW visible
03 Dec ? 18:20:01 10° WSW 18:23:20 16° W 18:26:39 10° NW visible
04 Dec ? 04:50:35 10° NE 04:55:13 27° E 04:59:46 10° SSE visible
04 Dec ? 06:30:45 10° NNE 06:36:11 63° WNW 06:41:31 10° SSW visible
04 Dec ? 16:22:25 10° SSE 16:28:01 88° ENE 16:33:38 10° NNW visible
04 Dec ? 18:05:17 10° SW 18:09:16 20° W 18:13:18 10° NW visible
05 Dec ? 04:37:02 10° NE 04:41:12 22° E 04:45:19 10° SE visible
05 Dec ? 06:16:52 10° NNE 06:22:22 78° WNW 06:27:46 10° SSW visible
05 Dec ? 17:50:45 10° SW 17:55:15 25° W 17:59:46 10° NW visible
06 Dec ? 04:23:35 10° NE 04:27:09 17° E 04:30:40 10° SE visible
06 Dec ? 06:03:00 10° NNE 06:08:32 86° ESE 06:13:56 10° SSW visible
06 Dec ? 17:36:22 10° SSW 17:41:16 30° W 17:46:09 10° NNW visible
07 Dec ? 04:10:24 10° NE 04:13:04 14° E 04:15:43 10° ESE visible
07 Dec ? 05:49:11 10° NNE 05:54:40 69° ESE 06:00:02 10° S visible
07 Dec ? 17:22:07 10° SSW 17:27:18 38° W 17:32:28 10° NNW visible
08 Dec ? 03:58:00 10° ENE 03:58:56 10° E 03:59:53 10° E visible
08 Dec ? 05:35:23 10° NNE 05:40:45 55° E 05:46:02 10° S visible
08 Dec ? 07:16:16 10° N 07:21:05 33° WNW 07:25:51 10° WSW visible
08 Dec ? 17:07:58 10° S 17:13:21 47° W 17:18:43 10° NNW visible
09 Dec ? 05:21:36 10° NNE 05:26:50 44° E 05:31:57 10° S visible
09 Dec ? 07:02:17 10° N 07:07:21 40° WNW 07:12:20 10° SW visible
09 Dec ? 16:53:56 10° S 16:59:26 59° WSW 17:04:55 10° NNW visible
09 Dec ? 18:39:18 10° W 18:41:09 12° W 18:43:00 10° WNW visible
10 Dec ? 05:07:52 10° NNE 05:12:52 35° E 05:17:46 10° SSE visible
10 Dec ? 06:48:21 10° N 06:53:35 49° WNW 06:58:44 10° SW visible
10 Dec ? 16:39:58 10° S 16:45:32 73° WSW 16:51:06 10° NNW visible
10 Dec ? 18:23:58 10° WSW 18:27:03 15° W 18:30:08 10° NW visible
